Find Starlink 1554

NORAD ID: 46055 Int'l Des: 2020-055 Owner: SPXS Country: US Constellation: starlink operational
LEOCIRCULAR

リアルタイム位置

3D地球を読み込み中...

Starlink 1554について

説明を読み込み中...

次回通過

Passes for default location (London). Set your location on the main map for personalized predictions.

高度履歴

Loading altitude history...

軌道要素

1 46055U 20055AE 26105.90979576 .00000475 00000-0 27067-4 0 9990
2 46055 53.1603 301.1029 0001300 80.5532 279.5617 15.31699125314774
Epoch: Apr 15, 2026 • Age: 9 hours

現在のステータス

高度 472.4 km
速度 7.63 km/s
衛星直下点 -5.27°S, 17.15°W
打ち上げ日 Aug 7, 2020
運用期間 5.6 years
タイプ internet

技術仕様

分類 Payload
質量 260.00 kg
乾燥質量 248.00 kg
総質量 260.00 kg
長さ 0.20 m
直径 2.80 m
スパン 9.00 m
形状 Box + pan
製造者 SPXS
バスタイプ Starlink
フェーズステータス In Orbit
所有者/国 SPXS/US

Most Searched